Tehachapi, CA

9:20 PM PST on December 14, 2019 (GMT -0800)
Tehachapi Municipal

Weather History for KTSP - October, 2019

Change the Weather History Date:

Monday, October 7, 2019

  Actual Average Record
Temperature  
Mean Temperature 63 °F -  
Max Temperature 82 °F 75 °F 82 °F (2014)
Min Temperature 44 °F 46 °F 35 °F (2011)
Degree Days  
Heating Degree Days 2    
Growing Degree Days 13 (Base 50)    
Moisture  
Dew Point 21 °F    
Average Humidity 24    
Maximum Humidity 61    
Minimum Humidity 9    
Precipitation  
Precipitation 0.00 in - - ()
Sea Level Pressure  
Sea Level Pressure 30.12 in    
Wind  
Wind Speed 8 mph ()    
Max Wind Speed 17 mph    
Max Gust Speed 21 mph    
Visibility 9.5 miles    
Events      
Averages and records for this station are not official NWS values.
T = Trace of Precipitation, MM = Missing Value Source: Averaged Metar Reports

Daily Weather History Graph

Daily Weather History Graph

Search for Another Location

Airport or City:

Astronomy

Oct. 07, 2019 Rise Set
Actual Time 6:53 AM PDT 6:29 PM PDT
Civil Twilight 6:27 AM PDT 6:54 PM PDT
Nautical Twilight 5:58 AM PDT 7:24 PM PDT
Astronomical Twilight 5:28 AM PDT 7:53 PM PDT
Moon 3:39 PM PDT (10/7) 1:06 AM PDT (10/7)
Length of Visible Light 12h 27m
Length of Day
11h 36m
Waxing Gibbous, 70% of the Moon is Illuminated
Oct 7
Waxing Gibbous
Oct 13
Full
Oct 21
Last Quarter
Oct 27
New
Nov 4
First Quarter

Hourly Weather History & Observations

Time (PDT) Temp. Windchill Dew Point Humidity Pressure Visibility Wind Dir Wind Speed Gust Speed Precip Events Conditions
12:15 AM 51.8 °F - 14.0 °F 22% 30.18 in 10.0 mi ESE 10.4 mph - N/A   Clear
12:35 AM 51.8 °F - 14.0 °F 22% 30.18 in 10.0 mi ESE 10.4 mph - N/A   Clear
12:55 AM 48.2 °F - 14.0 °F 25% 30.18 in 10.0 mi ESE 10.4 mph - N/A   Clear
1:15 AM 48.2 °F - 14.0 °F 25% 30.18 in 10.0 mi ESE 10.4 mph - N/A   Clear
1:35 AM 48.2 °F - 14.0 °F 25% 30.18 in 10.0 mi ESE 10.4 mph - N/A   Clear
1:55 AM 48.2 °F - 14.0 °F 25% 30.18 in 10.0 mi SE 9.2 mph - N/A   Clear
2:15 AM 48.2 °F - 14.0 °F 25% 30.18 in 10.0 mi SE 13.8 mph - N/A   Clear
2:35 AM 48.2 °F - 12.2 °F 24% 30.17 in 10.0 mi East 5.8 mph - N/A   Clear
2:55 AM 48.2 °F - 14.0 °F 25% 30.16 in 10.0 mi SE 12.7 mph - N/A   Clear
3:15 AM 48.2 °F - 14.0 °F 25% 30.16 in 10.0 mi ESE 8.1 mph - N/A   Clear
3:35 AM 48.2 °F - 12.2 °F 24% 30.15 in 10.0 mi ESE 4.6 mph - N/A   Clear
3:55 AM 48.2 °F - 12.2 °F 24% 30.15 in 10.0 mi ESE 4.6 mph - N/A   Clear
4:15 AM 46.4 °F - 14.0 °F 27% 30.15 in 10.0 mi Calm Calm - N/A   Clear
4:35 AM 46.4 °F 43.5 °F 12.2 °F 25% 30.15 in 10.0 mi ESE 5.8 mph - N/A   Clear
4:55 AM 46.4 °F 42.9 °F 10.4 °F 23% 30.15 in 10.0 mi ESE 6.9 mph - N/A   Clear
5:15 AM 46.4 °F 42.4 °F 12.2 °F 25% 30.15 in 10.0 mi ESE 8.1 mph - N/A   Clear
5:35 AM 46.4 °F 42.9 °F 12.2 °F 25% 30.15 in 10.0 mi ESE 6.9 mph - N/A   Clear
5:55 AM 46.4 °F 42.9 °F 14.0 °F 27% 30.16 in 10.0 mi ESE 6.9 mph - N/A   Clear
6:35 AM 48.2 °F - 12.2 °F 24% 30.16 in 10.0 mi ESE 12.7 mph - N/A   Clear
7:15 AM 50.0 °F - 14.0 °F 24% 30.16 in 10.0 mi ESE 9.2 mph - N/A   Clear
7:35 AM 51.8 °F - 14.0 °F 22% 30.16 in 10.0 mi ESE 10.4 mph - N/A   Clear
7:55 AM 53.6 °F - 14.0 °F 21% 30.17 in 10.0 mi SE 12.7 mph - N/A   Clear
8:15 AM 53.6 °F - 15.8 °F 22% 30.17 in 10.0 mi SE 10.4 mph - N/A   Clear
8:35 AM 59.0 °F - 15.8 °F 19% 30.18 in 10.0 mi ESE 5.8 mph - N/A   Clear
8:55 AM 62.6 °F - 15.8 °F 16% 30.17 in 10.0 mi ESE 5.8 mph - N/A   Clear
9:15 AM 69.8 °F - 14.0 °F 12% 30.17 in 10.0 mi East 6.9 mph - N/A   Clear
9:35 AM 73.4 °F - 14.0 °F 10% 30.17 in 9.0 mi ESE 9.2 mph - N/A   Clear
9:55 AM 75.2 °F - 14.0 °F 10% 30.17 in 10.0 mi ESE 8.1 mph - N/A   Clear
10:15 AM 75.2 °F - 15.8 °F 11% 30.16 in 10.0 mi ESE 8.1 mph - N/A   Clear
10:35 AM 75.2 °F - 14.0 °F 10% 30.16 in 10.0 mi East 9.2 mph - N/A   Clear
10:55 AM 77.0 °F - 15.8 °F 10% 30.16 in 10.0 mi East 5.8 mph - N/A   Clear
11:15 AM 77.0 °F - 14.0 °F 9% 30.15 in 8.0 mi East 9.2 mph - N/A   Clear
11:35 AM 77.0 °F - 15.8 °F 10% 30.15 in 8.0 mi SE 8.1 mph - N/A   Clear
11:55 AM 78.8 °F - 15.8 °F 9% 30.14 in 9.0 mi SE 6.9 mph - N/A   Clear
12:15 PM 77.0 °F - 15.8 °F 10% 30.13 in 5.0 mi SSE 6.9 mph - N/A   Haze
12:35 PM 80.6 °F - 15.8 °F 9% 30.13 in 7.0 mi SE 8.1 mph - N/A   Clear
12:55 PM 80.6 °F - 15.8 °F 9% 30.11 in 6.0 mi SW 3.5 mph - N/A   Haze
1:15 PM 80.6 °F - 15.8 °F 9% 30.11 in 8.0 mi West 3.5 mph - N/A   Clear
1:35 PM 82.4 °F - 17.6 °F 9% 30.09 in 10.0 mi NW 16.1 mph 19.6 mph N/A   Clear
1:55 PM 80.6 °F - 17.6 °F 10% 30.09 in 10.0 mi NW 13.8 mph 19.6 mph N/A   Clear
2:15 PM 80.6 °F - 17.6 °F 10% 30.08 in 8.0 mi NW 11.5 mph - N/A   Clear
2:35 PM 80.6 °F - 17.6 °F 10% 30.08 in 7.0 mi NW 15.0 mph 19.6 mph N/A   Clear
2:55 PM 80.6 °F - 17.6 °F 10% 30.07 in 7.0 mi NW 15.0 mph - N/A   Clear
3:15 PM 80.6 °F - 19.4 °F 10% 30.07 in 8.0 mi NW 13.8 mph - N/A   Clear
3:35 PM 78.8 °F - 19.4 °F 11% 30.07 in 9.0 mi NW 16.1 mph 20.7 mph N/A   Clear
3:55 PM 78.8 °F - 19.4 °F 11% 30.07 in 10.0 mi NW 17.3 mph - N/A   Clear
4:15 PM 77.0 °F - 21.2 °F 12% 30.07 in 10.0 mi NW 16.1 mph 20.7 mph N/A   Clear
4:35 PM 77.0 °F - 21.2 °F 12% 30.07 in 10.0 mi WNW 13.8 mph 19.6 mph N/A   Clear
4:55 PM 75.2 °F - 24.8 °F 15% 30.07 in 9.0 mi WNW 12.7 mph 17.3 mph N/A   Clear
5:15 PM 75.2 °F - 28.4 °F 18% 30.07 in 10.0 mi WNW 11.5 mph - N/A   Clear
5:35 PM 73.4 °F - 32.0 °F 22% 30.06 in 10.0 mi WNW 11.5 mph - N/A   Clear
5:55 PM 71.6 °F - 33.8 °F 25% 30.06 in 10.0 mi WNW 10.4 mph - N/A   Clear
6:15 PM 69.8 °F - 35.6 °F 28% 30.06 in 9.0 mi NW 9.2 mph - N/A   Clear
6:35 PM 68.0 °F - 35.6 °F 30% 30.06 in 9.0 mi NW 9.2 mph - N/A   Clear
6:55 PM 64.4 °F - 35.6 °F 34% 30.06 in 10.0 mi NW 8.1 mph - N/A   Clear
7:15 PM 64.4 °F - 35.6 °F 34% 30.06 in 10.0 mi WNW 5.8 mph - N/A   Clear
7:35 PM 64.4 °F - 37.4 °F 37% 30.07 in 10.0 mi NW 5.8 mph - N/A   Clear
7:55 PM 60.8 °F - 37.4 °F 42% 30.07 in 10.0 mi WNW 6.9 mph - N/A   Clear
8:15 PM 59.0 °F - 37.4 °F 45% 30.07 in 10.0 mi West 4.6 mph - N/A   Clear
8:35 PM 57.2 °F - 35.6 °F 44% 30.08 in 10.0 mi West 6.9 mph - N/A   Clear
8:55 PM 57.2 °F - 32.0 °F 38% 30.08 in 10.0 mi West 4.6 mph - N/A   Clear
9:15 PM 57.2 °F - 32.0 °F 38% 30.08 in 10.0 mi Calm Calm - N/A   Clear
9:35 PM 55.4 °F - 33.8 °F 44% 30.08 in 10.0 mi Calm Calm - N/A   Clear
9:55 PM 53.6 °F - 33.8 °F 47% 30.08 in 10.0 mi Calm Calm - N/A   Clear
10:15 PM 50.0 °F - 33.8 °F 54% 30.08 in 10.0 mi Calm Calm - N/A   Clear
10:35 PM 48.2 °F - 32.0 °F 54% 30.08 in 10.0 mi Calm Calm - N/A   Clear
11:15 PM 48.2 °F - 32.0 °F 54% 30.07 in 10.0 mi Calm Calm - N/A   Clear
11:35 PM 44.6 °F - 32.0 °F 61% 30.07 in 10.0 mi Calm Calm - N/A   Clear
11:55 PM 46.4 °F 45.2 °F 32.0 °F 57% 30.08 in 10.0 mi SE 3.5 mph - N/A   Clear